Tracking 28799 objects as of 18-Apr-2024
HD Live streaming from Space Station
objects crossing your sky now

OPS 3367 A

Track OPS 3367 A now!
10-day predictions
OPS 3367 A is classified as:


NORAD ID: 734
Int'l Code: 1964-002B
Perigee: 791.5 km
Apogee: 811.5 km
Inclination: 99.0 °
Period: 100.8 minutes
Semi major axis: 7172 km
RCS: 0.3359 m2 (medium)
Launch date: January 19, 1964
Source: United States (US)
Launch site: AIR FORCE WESTERN TEST RANGE (AFWTR)
Your satellite tracking list
Your tracking list is empty




NASA's NSSDC Master Catalog

Two Line Element Set (TLE):
1 00734U 64002B   24108.66183126  .00000344  00000-0  15386-3 0  9991
2 00734  98.9980   4.0177 0013958 324.8950  35.1310 14.29216672135827
Source of the keplerian elements: AFSPC